Marrakech, Morocco

2:35 AM WEST on April 24, 2018 (GMT +0100)
Marrakech

Weather History for GMMX - November, 2014

Change the Weather History Date:

Monday, November 17, 2014

  Actual Average Record
Temperature  
Mean Temperature 63 °F -  
Max Temperature 71 °F 67 °F 80 °F (1997)
Min Temperature 55 °F 46 °F 39 °F (2001)
Degree Days  
Heating Degree Days 2    
Growing Degree Days 13 (Base 50)    
Moisture  
Dew Point 54 °F    
Average Humidity 73    
Maximum Humidity 100    
Minimum Humidity 44    
Precipitation  
Precipitation 0.00 in 0.05 in - ()
Sea Level Pressure  
Sea Level Pressure 29.90 in    
Wind  
Wind Speed 1 mph ()    
Max Wind Speed 6 mph    
Max Gust Speed -    
Visibility 6.1 miles    
Events      
Averages and records for this station are not official NWS values.
T = Trace of Precipitation, MM = Missing Value Source: Averaged Metar Reports

Daily Weather History Graph

Daily Weather History Graph

Search for Another Location

Airport or City:

Astronomy

Nov. 17, 2014 Rise Set
Actual Time 7:01 AM WET 5:32 PM WET
Civil Twilight 6:35 AM WET 5:58 PM WET
Nautical Twilight 6:06 AM WET 6:27 PM WET
Astronomical Twilight 5:37 AM WET 6:56 PM WET
Moon 2:09 AM WET (11/17) 2:31 PM WET (11/17)
Length of Visible Light 11h 22m
Length of Day
10h 30m
Waning Crescent, 24% of the Moon is Illuminated
Nov 17
Waning Crescent
Nov 22
New
Nov 29
First Quarter
Dec 6
Full
Dec 14
Last Quarter

Hourly Weather History & Observations

Time (WET) Temp. Dew Point Humidity Pressure Visibility Wind Dir Wind Speed Gust Speed Precip Events Conditions
12:00 AM 62 °F 52 °F 62% 29.91 in 6 mi NNE 3.5 mph - -   Partly Cloudy
12:00 AM 60.8 °F 51.8 °F 72% 29.95 in 6.2 mi NNE 3.5 mph - N/A   Scattered Clouds
12:30 AM 60.8 °F 53.6 °F 77% 29.95 in 6.2 mi North 3.5 mph - N/A   Scattered Clouds
1:00 AM 60.8 °F 53.6 °F 77% 29.95 in 6.2 mi Calm Calm - N/A   Scattered Clouds
1:30 AM 60.8 °F 53.6 °F 77% 29.95 in 6.2 mi Calm Calm - N/A   Scattered Clouds
2:00 AM 59.0 °F 55.4 °F 88% 29.95 in 6.2 mi Calm Calm - N/A   Scattered Clouds
2:30 AM 59.0 °F 53.6 °F 82% 29.95 in 6.2 mi Calm Calm - N/A   Scattered Clouds
3:00 AM 59 °F 54 °F 79% 29.92 in 6 mi ENE 2.3 mph - -   Partly Cloudy
3:00 AM 59.0 °F 53.6 °F 82% 29.95 in 6.2 mi ENE 2.3 mph - N/A   Unknown
3:30 AM 59.0 °F 53.6 °F 82% 29.92 in 6.2 mi Calm Calm - N/A   Scattered Clouds
4:00 AM 59.0 °F 53.6 °F 82% 29.92 in 6.2 mi Calm Calm - N/A   Scattered Clouds
4:30 AM 59.0 °F 53.6 °F 82% 29.92 in 6.2 mi Calm Calm - N/A   Unknown
5:00 AM 59.0 °F 53.6 °F 82% 29.92 in 6.2 mi Calm Calm - N/A   Scattered Clouds
5:30 AM 57.2 °F 55.4 °F 94% 29.92 in 6.2 mi East 3.5 mph - N/A   Scattered Clouds
6:00 AM 58 °F 55 °F 86% 29.90 in 6 mi East 3.5 mph - -   Scattered Clouds
6:00 AM 57.2 °F 55.4 °F 94% 29.92 in 6.2 mi East 3.5 mph - N/A   Scattered Clouds
6:30 AM 57.2 °F 55.4 °F 94% 29.92 in 6.2 mi East 2.3 mph - N/A   Scattered Clouds
7:00 AM 57.2 °F 53.6 °F 88% 29.92 in 6.2 mi Calm Calm - N/A   Mostly Cloudy
7:30 AM 57.2 °F 53.6 °F 88% 29.92 in 6.2 mi West 1.2 mph - N/A   Mostly Cloudy
8:00 AM 55.4 °F 55.4 °F 100% 29.92 in 6.2 mi Calm Calm - N/A   Scattered Clouds
8:30 AM 57.2 °F 55.4 °F 94% 29.92 in 6.2 mi Calm Calm - N/A   Scattered Clouds
9:00 AM 57 °F 56 °F 93% 29.91 in 5 mi Calm Calm - -   Scattered Clouds
9:00 AM 57.2 °F 55.4 °F 94% 29.92 in 5.0 mi Calm Calm - N/A   Scattered Clouds
9:30 AM 59.0 °F 57.2 °F 94% 29.92 in 5.6 mi Calm Calm - N/A   Scattered Clouds
10:00 AM 60.8 °F 55.4 °F 82% 29.92 in 5.0 mi Calm Calm - N/A   Scattered Clouds
10:30 AM 64.4 °F 55.4 °F 73% 29.92 in 6.2 mi Calm Calm - N/A   Scattered Clouds
11:00 AM 66.2 °F 55.4 °F 68% 29.92 in 6.2 mi Calm Calm - N/A   Scattered Clouds
11:30 AM 66.2 °F 55.4 °F 68% 29.92 in 5.6 mi Variable 1.2 mph - N/A   Scattered Clouds
12:00 PM 66 °F 54 °F 56% 29.86 in 6 mi North 5.8 mph - -   Scattered Clouds
12:00 PM 66.2 °F 53.6 °F 64% 29.89 in 6.2 mi North 4.6 mph - N/A   Scattered Clouds
12:30 PM 66.2 °F 55.4 °F 68% 29.89 in 6.2 mi NNW 4.6 mph - N/A   Scattered Clouds
1:00 PM 68.0 °F 53.6 °F 60% 29.89 in 6.2 mi NNW 3.5 mph - N/A   Scattered Clouds
1:30 PM 68.0 °F 53.6 °F 60% 29.86 in 6.2 mi Calm Calm - N/A   Scattered Clouds
2:00 PM 68.0 °F 53.6 °F 60% 29.86 in 6.2 mi Calm Calm - N/A   Scattered Clouds
2:30 PM 69.8 °F 55.4 °F 60% 29.86 in 6.2 mi Calm Calm - N/A   Scattered Clouds
3:00 PM 71 °F 54 °F 44% 29.81 in 6 mi Calm Calm - -   Scattered Clouds
3:00 PM 71.6 °F 53.6 °F 53% 29.86 in 6.2 mi Variable 2.3 mph - N/A   Partly Cloudy
3:30 PM 71.6 °F 53.6 °F 53% 29.86 in 6.2 mi Calm Calm - N/A   Partly Cloudy
4:00 PM 71.6 °F 53.6 °F 53% 29.86 in 6.2 mi SSW 3.5 mph - N/A   Unknown
4:30 PM 71.6 °F 53.6 °F 53% 29.86 in 6.2 mi Calm Calm - N/A   Partly Cloudy
5:00 PM 71.6 °F 53.6 °F 53% 29.86 in 6.2 mi Variable 2.3 mph - N/A   Partly Cloudy
5:30 PM 69.8 °F 53.6 °F 56% 29.86 in 6.2 mi SSW 3.5 mph - N/A   Partly Cloudy
6:00 PM 68 °F 53 °F 49% 29.83 in 6 mi Calm Calm - -   Scattered Clouds
6:00 PM 68.0 °F 53.6 °F 60% 29.89 in 6.2 mi Calm Calm - N/A   Partly Cloudy
6:30 PM 68.0 °F 53.6 °F 60% 29.89 in 6.2 mi SSW 3.5 mph - N/A   Partly Cloudy
7:00 PM 68.0 °F 53.6 °F 60% 29.89 in 6.2 mi Variable 1.2 mph - N/A   Partly Cloudy
7:30 PM 64.4 °F 55.4 °F 73% 29.89 in 6.2 mi Calm Calm - N/A   Partly Cloudy
8:00 PM 64.4 °F 53.6 °F 68% 29.92 in 6.2 mi Calm Calm - N/A   Partly Cloudy
8:30 PM 64.4 °F 53.6 °F 68% 29.92 in 5.6 mi Calm Calm - N/A   Partly Cloudy
9:00 PM 62 °F 54 °F 69% 29.91 in 6 mi Calm Calm - -   Scattered Clouds
9:00 PM 62.6 °F 55.4 °F 77% 29.92 in 6.2 mi Calm Calm - N/A   Partly Cloudy
9:30 PM 62.6 °F 53.6 °F 72% 29.92 in 6.2 mi NE 4.6 mph - N/A   Partly Cloudy
10:00 PM 60.8 °F 53.6 °F 77% 29.92 in 6.2 mi NNE 2.3 mph - N/A   Partly Cloudy
10:30 PM 62.6 °F 53.6 °F 72% 29.92 in 6.2 mi Calm Calm - N/A   Partly Cloudy
11:00 PM 60.8 °F 53.6 °F 77% 29.92 in 6.2 mi Calm Calm - N/A   Partly Cloudy
11:30 PM 60.8 °F 53.6 °F 77% 29.92 in 6.2 mi Calm Calm - N/A   Partly Cloudy